www.pogodaiklimat.ru

Погода и климат >> Архив погоды >> Таиланд >> Наратхиват


ПОГОДА в Наратхивате

  • Прогноз погоды в Наратхивате
  • Монитор погоды в Наратхивате

АРХИВ ПОГОДЫ в Наратхивате

Время (UTC), дата Ветер
(напр.,м/с)
 
Видим.   Явления Облачность Т
(С)
Тd
(С)
f
(%)
Тe
(С)
Тes
(С)
Комфортность P
(гПа)
Po
(гПа)
Тmin
(С)
Tmax
(С)
R
(мм)
R24
(мм)
S
(см)
03 14.07 ЮЗ 5 12 км 3/1 600 м
[Cu hum Cs]
+30.3 +23.3 66 +41 +47 опасность
перегрева
1010.8 1010.2
06 14.07 СВ 7 12 км 8/3 600 м
[Cu med, cong Cs]
+34.2 +24.3 56 +46 +50 опасность
перегрева
1009.0 1008.5
09 14.07 ЮЗ 5 10 км гроза без осадков 8/3 600 м
[Cb cap Ac lent Cs]
+28.9 +22.9 70 +38 +40 очень
душно
1007.6 1007.0 0.5
12 14.07 ЮЗ 8 10 км {гроза} 8/3 600 м
[Cu med, cong Cs]
+27.5 +22.3 73 +36 +36 очень
душно
1008.3 1007.7 +34.5 0.5
15 14.07 штиль 0 10 км 8/3 600 м
[Cu med, cong Cs]
+26.0 +22.9 83 +35 +35 очень
душно
1010.0 1009.4
18 14.07 штиль 0 9000 м дымка 8/3 600 м
[Cu hum Cs]
+25.2 +22.7 86 +33 +33 очень
душно
1008.0 1007.5
21 14.07 ЮЗ 2 9000 м дымка 3/3 600 м
[Cu hum Cs]
+24.3 +22.4 89 +32 +32 очень
душно
1007.0 1006.4
00 15.07 ЮЗ 2 10 км 3/3 600 м
[Cu hum Cs]
+24.6 +22.7 89 +32 +33 очень
душно
1008.9 1008.3
03 15.07 ЮЗ 6 12 км 3/3 600 м
[Cu hum Ci fib]
+30.7 +22.3 61 +40 +44 очень
душно
1010.3 1009.7
06 15.07 З 5 12 км 3/3 600 м
[Cu med, cong Ci fib]
+34.6 +21.5 47 +43 +50 опасность
перегрева
1007.8 1007.2
09 15.07 СЗ 6 12 км 3/3 600 м
[Cu hum Ci fib]
+35.0 +20.0 42 +41 +43 опасность
перегрева
1006.2 1005.6
12 15.07 штиль 0 10 км 3/3 600 м
[Cu hum Cs]
+31.7 +21.5 55 +40 +40 очень
душно
1007.2 1006.6 +35.4
15 15.07 З 5 10 км 3/3 600 м
[Cu hum Cs]
+29.2 +21.3 62 +37 +37 очень
душно
1009.6 1009.0
18 15.07 штиль 0 9000 м дымка 3/3 600 м
[Cu hum Cs]
+27.2 +21.7 72 +35 +35 очень
душно
1007.1 1006.5
21 15.07 штиль 0 8000 м дымка 8/3 600 м
[Cu hum Cs]
+25.5 +22.8 85 +34 +34 очень
душно
1006.1 1005.5
00 16.07 З 3 10 км 8/3 600 м
[Cu med, cong Cs]
+25.0 +22.9 88 +33 +34 очень
душно
1008.7 1008.1
03 16.07 З 3 10 км 8/3 600 м
[Cu med, cong Cs]
+29.9 +22.1 63 +39 +46 очень
душно
1009.5 1008.9
06 16.07 З 6 10 км 8/3 600 м
[Cu med, cong Cs]
+33.4 +22.3 52 +42 +47 опасность
перегрева
1007.6 1007.0
09 16.07 ЮЗ 8 10 км 9/3 600 м
[Cu med, cong Ac lent Cs]
+31.0 +23.0 62 +41 +41 опасность
перегрева
1006.5 1005.9
12 16.07 З 3 10 км 9/3 600 м
[Cu hum Ac lent Cs]
+28.5 +21.8 67 +37 +37 очень
душно
1007.4 1006.8 +34.2
15 16.07 штиль 0 10 км 8/3 600 м
[Cu hum Cs]
+27.3 +21.9 72 +35 +35 очень
душно
1009.8 1009.2
18 16.07 штиль 0 9000 м дымка 8/3 600 м
[Cu hum Cs]
+26.0 +22.3 80 +34 +34 очень
душно
1006.9 1006.4
21 16.07 штиль 0 9000 м дымка 8/3 600 м
[Cu hum Cs]
+25.0 +22.0 83 +32 +32 очень
душно
1006.3 1005.7
00 17.07 штиль 0 9000 м дымка 8/3 600 м
[Cu hum Cs]
+24.5 +22.3 88 +32 +33 очень
душно
1008.1 1007.5
03 17.07 Ю 3 12 км 6/3 600 м
[Cu hum Cs]
+31.0 +21.3 56 +39 +47 очень
душно
1008.8 1008.2
06 17.07 СВ 6 12 км 3/1 600 м
[Cu hum Cs]
+32.5 +21.4 52 +40 +47 очень
душно
1006.7 1006.1
09 17.07 СВ 4 12 км 8/3 600 м
[Cu med, cong Cs]
+31.5 +21.9 57 +40 +43 очень
душно
1005.5 1004.9
12 17.07 штиль 0 10 км 8/3 600 м
[Cu med, cong Cs]
+29.5 +22.4 66 +39 +39 очень
душно
1006.1 1005.6 +33.0
15 17.07 штиль 0 10 км 8/3 600 м
[Cu med, cong Cs]
+28.5 +22.6 70 +37 +37 очень
душно
1008.1 1007.5
18 17.07 штиль 0 9000 м дымка 8/3 600 м
[Cu med, cong Cs]
+26.7 +23.0 80 +36 +36 очень
душно
1006.4 1005.8
21 17.07 штиль 0 8000 м дымка 8/3 600 м
[Cu med, cong Cs]
+25.7 +23.7 89 +35 +35 очень
душно
1006.0 1005.4
00 18.07 штиль 0 9000 м дымка 10/3 600 м
[Cu Sc As op]
+25.5 +24.0 91 +35 +35 очень
душно
1007.1 1006.5
03 18.07 штиль 0 9000 м дымка 10/6 600 м
[Cu Sc As op]
+28.5 +24.2 78 +40 +42 очень
душно
1007.7 1007.1
06 18.07 штиль 0 10 км 10/3 600 м
[Cu med, cong Cs]
+32.2 +24.0 62 +44 +59 опасность
перегрева
1006.3 1005.7
09 18.07 В 6 10 км 8/3 600 м
[Cu med, cong Cs]
+32.5 +24.7 64 +46 +47 опасность
перегрева
1005.1 1004.5
12 18.07 штиль 0 10 км зарница 8/4 300 м
[Cb cap Cs]
+29.5 +26.7 85 +46 +46 опасность
перегрева
1005.9 1005.3 +32.7
15 18.07 С 7 8000 м гроза без осадков 9/5 300 м
[Cb cap Ac As Cs]
+27.5 +23.4 78 +37 +37 очень
душно
1008.3 1007.7
18 18.07 З 3 7000 м в посл. час дождь {гроза} 10/3 300 м
[Cu Sc Ac As Cs]
+25.5 +23.9 91 +35 +35 очень
душно
1007.4 1006.8 25
21 18.07 штиль 0 7000 м дымка 10/3 300 м
[Cu Sc Ac As Cs]
+24.4 +23.8 96 +33 +33 очень
душно
1006.0 1005.4
00 19.07 З 3 7000 м дымка 10/3 300 м
[Cu Sc Ac As Cs]
+25.2 +23.6 91 +34 +34 очень
душно
1007.2 1006.6
03 19.07 штиль 0 9000 м дымка 10/6 600 м
[Cu Sc Cs]
+29.6 +24.4 74 +42 +48 опасность
перегрева
1008.5 1007.9
06 19.07 В 10 9000 м дымка 10/3 600 м
[Cu med, cong Ac lent Cs]
+32.5 +25.3 66 +47 +47 опасность
перегрева
1006.9 1006.4
09 19.07 ЮЗ 13 7000 м гроза без осадков 10/3 300 м
[Cb cap Ac As Cs]
+30.5 +25.4 74 +44 +44 опасность
перегрева
1006.7 1006.1
12 19.07 З 3 7000 м в посл. час дождь {гроза} 10/3 300 м
[Cu Sc Ac As Cs]
+25.5 +21.7 80 +33 +33 очень
душно
1007.9 1007.3 +33.0 11
15 19.07 штиль 0 8000 м дымка 10/3 600 м
[Cu med, cong Ac lent Cs]
+24.5 +23.0 91 +32 +32 очень
душно
1008.3 1007.7
18 19.07 штиль 0 8000 м дымка 9/3 600 м
[Cu med, cong Cs]
+24.3 +23.1 93 +32 +32 очень
душно
1007.7 1007.1
21 19.07 штиль 0 8000 м дымка 9/3 600 м
[Cu med, cong Cs]
+24.1 +22.8 92 +32 +32 очень
душно
1006.8 1006.2
00 20.07 штиль 0 8000 м дымка 8/3 600 м
[Cu med, cong Cs]
+25.0 +23.7 93 +34 +35 очень
душно
1007.6 1007.1
03 20.07 штиль 0 10 км 9/3 600 м
[Cu med, cong Cs]
+27.5 +24.8 85 +39 +51 опасность
солнечного
удара
1009.3 1008.7
06 20.07 В 6 10 км 9/3 600 м
[Cu hum Cs]
+30.5 +25.6 75 +45 +49 опасность
перегрева
1007.3 1006.7
09 20.07 С 7 10 км 8/3 600 м
[Cu med, cong Cs]
+30.6 +24.6 70 +43 +44 опасность
перегрева
1006.7 1006.1
12 20.07 В 9 10 км 8/3 600 м
[Cu med, cong Cs]
+29.2 +24.9 78 +42 +42 опасность
перегрева
1007.1 1006.6 +33.2
15 20.07 штиль 0 10 км 8/3 600 м
[Cu med, cong Cs]
+27.8 +23.7 78 +38 +38 очень
душно
1009.3 1008.7

 

Местоположение метеостанции Наратхиват (Таиланд): широта 6.42 долгота 101.81 высота над уровнем моря 5 м.

В архиве по умолчанию представлена погода в Наратхивате за последнюю неделю. Архивные данные за месяц целиком и за предыдущие месяцы, начиная с января 2011 года, Вы можете получить, выбрав интересующий диапазон дат из раскрывающегося списка и нажав кнопку "Ввод!".


*Определитесь, кто Вы:
робот инопланетянин человек

Внимание! Время в таблицах - всемирное. Для получения местного времени необходимо прибавить поправку, которая равна 7 ч.

Смотрите также архив погоды в соседних городах и на ближайших метеорологических станциях:

Погода в Кота-Бхару (Малайзия) (59 км)
Погода в Яла Агромете (Таиланд) (60 км)
Погода в Паттани (Таиланд) (83 км)
Погода в Алор Стар (Малайзия) (158 км)
Погода в Сонгкхле (Таиланд) (158 км)
Погода в Садао (Таиланд) (161 км)
Погода в Хатъяе (Таиланд) (162 км)
Погода в Куала-Тренггану (Малайзия) (184 км)
Погода на Авиабазе Баттерворт (Малайзия) (190 км)
Погода в Сатуне (Таиланд) (193 км)

Пояснения к столбцам:

Ветер - указаны скорость ветра в м/с - средняя за 10 мин, порывы в срок и между сроками (в фигурных скобках) и направление, откуда дует ветер: С - северный, СВ - северо-восточный, В - восточный, ЮВ - юго-восточный, Ю - южный, ЮЗ - юго-западный, З - западный, СЗ - северо-западный.
Видимость - горизонтальная дальность видимости в метрах или километрах. При видимости от 1 до 10 км при отсутствии осадков обычно наблюдается дымка, при ухудшении видимости до 1 км и менее - туман. В сухую погоду видимость может ухудшаться дымом, пылью или мглою.
Явления - указаны атмосферные явления, наблюдавшиеся в срок или в последний час перед сроком; фигурными скобками обозначены явления, наблюдавшиеся между сроками (за 1-3 часа до срока); квадратными скобками обозначены град или гололедные отложения с указанием их диаметра в мм.
Облачность - указаны через наклонную черту общая и нижняя облачность в баллах и высота нижней границы облаков в метрах; квадратными скобками обозначены формы облаков: Ci - перистые, Cs - перисто-слоистые, Cc - перисто-кучевые, Ac - высококучевые, As - высокослоистые, Sc - слоисто-кучевые, Ns - слоисто-дождевые, Cu - кучевые, Cb - кучево-дождевые. Подробнее классификацию облаков см. в Атласе облаков (PDF).
T - Температура воздуха - температура, измеренная на высоте 2 м над землей.
Td - Температура точки росы - температура, при понижении до которой содержащийся в воздухе водяной пар достигнет насыщения.
f - Относительная влажность воздуха - влажноcть воздуха, измеренная на высоте 2 м над землей.
Te - Эффективная температура - температура, которую ощущает одетый по сезону человек в тени. Характеристика душности погоды. При расчете учитывается влияние влажности воздуха и скорости ветра на теплоощущения человека.
Tes - Эффективная температура на солнце - температура, которую ощущает человек, с поправкой на солнечный нагрев. Характеристика знойности погоды. Зависит от высоты солнца над горизонтом, облачности и скорости ветра. Ночью, в пасмурную погоду, а также при ветре 12 м/с и более поправка равна нулю.
P - Атмосферное давление - приведенное к уровню моря атмосферное давление.
Po - Атмосферное давление - измеренное на уровне метеостанции атмосферное давление.
Tmin - Минимальная температура - минимум температуры воздуха на высоте 2 м над землей.
Tmax - Максимальная температура - максимум температуры воздуха на высоте 2 м над землей.
R - Количество осадков - Количество выпавших осадков за период времени, мм. При наведении курсора мыши на число - период времени, за который выпало указанное количество осадков.
R24 - Количество осадков - Количество выпавших осадков за 24 часа, мм.
S - Снежный покров - Высота снежного покрова, см. При наведении курсора мыши на число - состояние снежного покрова и степень покрытия местности в баллах.